FW5487 Weather Reports


Display with metric or nautical units.
time (UTC)temp
F
wind
direction
speed
MPH
gust
MPH
rain 1hr
in
rain 24hr
in
rain mn
in
humidity
%
barometer
mb
20260903075704 81 134 3.0 6.0 0.00 0.00 0.00 67 1000.0
20260903074704 81 140 4.0 6.0 0.00 0.00 0.00 65 1000.0
20260903074203 81 138 5.0 6.0 0.00 0.00 0.00 64 1000.0
20260903073704 82 142 5.0 6.0 0.00 0.00 0.00 62 1000.0
20260903073204 82 139 3.0 6.0 0.00 0.00 0.00 62 1000.0
20260903072704 82 174 3.0 6.0 0.00 0.00 0.00 61 1000.0
20260903072203 82 178 3.0 6.0 0.00 0.00 0.00 61 1000.0
20260903071704 82 164 3.0 6.0 0.00 0.00 0.00 61 1000.0
20260903071203 82 181 3.0 6.0 0.00 0.00 0.00 61 1000.0
20260903070204 82 139 5.0 7.0 0.00 0.00 0.00 61 1000.0
20260903065704 82 137 5.0 7.0 0.00 0.00 0.00 61 1000.0
20260903065204 82 140 5.0 8.0 0.00 0.00 0.00 60 1000.0
20260903064703 82 143 5.0 8.0 0.00 0.00 0.00 60 1000.0
20260903064203 82 139 5.0 8.0 0.00 0.00 0.00 60 1000.0
20260903063704 82 145 5.0 8.0 0.00 0.00 0.00 60 1000.0
20260903063204 83 141 5.0 6.0 0.00 0.00 0.00 60 1000.0
20260903062703 82 135 5.0 6.0 0.00 0.00 0.00 60 1000.0
20260903061704 83 128 5.0 6.0 0.00 0.00 0.00 59 1000.0
20260903061204 83 117 5.0 6.0 0.00 0.00 0.00 59 1000.0
20260903060204 84 129 3.0 5.0 0.00 0.00 0.00 57 1000.0
20260903055704 84 139 3.0 5.0 0.00 0.00 0.00 56 1000.0
20260903055204 85 101 5.0 7.0 0.00 0.00 0.00 56 1000.0
20260903054703 85 133 4.0 6.0 0.00 0.00 0.00 53 1000.0
20260903053704 87 183 9.0 13.0 0.00 0.00 0.00 51 1000.0
20260903053204 87 181 7.0 13.0 0.00 0.00 0.00 51 1000.0
20260903052704 87 178 7.0 12.0 0.00 0.00 0.00 51 1000.0
20260903052204 86 180 6.0 8.0 0.00 0.00 0.00 51 1000.0
20260903051703 87 173 6.0 12.0 0.00 0.00 0.00 50 1000.0
20260903051203 87 180 6.0 9.0 0.00 0.00 0.00 50 1000.0
20260903050203 87 161 5.0 9.0 0.00 0.00 0.00 51 1000.0
20260903045703 86 172 5.0 8.0 0.00 0.00 0.00 52 1000.0
20260903045204 86 145 5.0 7.0 0.00 0.00 0.00 51 1000.0
20260903044704 87 141 4.0 9.0 0.00 0.00 0.00 48 1000.0
20260903044204 88 167 5.0 8.0 0.00 0.00 0.00 47 1000.0
20260903043703 88 176 6.0 12.0 0.00 0.00 0.00 47 1000.0
20260903043203 88 173 6.0 8.0 0.00 0.00 0.00 47 1000.0
20260903042704 88 164 6.0 9.0 0.00 0.00 0.00 47 1000.0
20260903042204 88 160 6.0 9.0 0.00 0.00 0.00 46 1000.0
20260903041204 88 169 7.0 9.0 0.00 0.00 0.00 46 1000.0
20260903040203 88 171 5.0 9.0 0.00 0.00 0.00 47 1000.0
20260903035204 87 175 6.0 8.0 0.00 0.00 0.00 48 1000.0
20260903034704 87 159 6.0 8.0 0.00 0.00 0.00 49 1000.0
20260903033704 86 169 5.0 7.0 0.00 0.00 0.00 53 1000.0
20260903033204 86 168 5.0 7.0 0.00 0.00 0.00 56 1000.0
20260903032703 85 150 4.0 6.0 0.00 0.00 0.00 59 1000.0
20260903032203 85 143 3.0 5.0 0.00 0.00 0.00 62 1000.0
20260903031204 85 143 3.0 6.0 0.00 0.00 0.00 62 1000.0
20260903030204 86 126 5.0 6.0 0.00 0.00 0.00 63 1000.0
20260903025704 86 133 5.0 6.0 0.00 0.00 0.00 63 1000.0
20260903025203 87 127 5.0 6.0 0.00 0.00 0.00 61 1000.0
20260903024703 87 133 4.0 5.0 0.00 0.00 0.00 61 1000.0
20260903024204 87 134 3.0 5.0 0.00 0.00 0.00 60 1000.0
20260903023704 88 127 3.0 5.0 0.00 0.00 0.00 60 1000.0
20260903023204 88 139 3.0 5.0 0.00 0.00 0.00 59 1000.0
20260903022703 88 129 3.0 6.0 0.00 0.00 0.00 58 1000.0
20260903022203 89 135 4.0 5.0 0.00 0.00 0.00 56 1000.0
20260903021203 90 15 1.0 3.0 0.00 0.00 0.00 53 1000.0
20260903020703 91 55 3.0 6.0 0.00 0.00 0.00 51 1000.0
20260903020203 91 120 2.0 6.0 0.00 0.00 0.00 51 1000.0
20260903015703 91 129 2.0 3.0 0.00 0.00 0.00 50 1000.0
20260903015203 91 94 1.0 3.0 0.00 0.00 0.00 50 1000.0
20260903013704 92 75 1.0 5.0 0.00 0.00 0.00 49 1000.0
20260903013204 92 114 3.0 5.0 0.00 0.00 0.00 49 1000.0
20260903012703 92 98 1.0 3.0 0.00 0.00 0.00 49 1000.0
20260903012204 92 120 1.0 3.0 0.00 0.00 0.00 48 1000.0
20260903010704 93 81 2.0 7.0 0.00 0.00 0.00 47 1000.0
20260903010203 93 59 3.0 6.0 0.00 0.00 0.00 46 1000.0
20260903005203 94 90 1.0 3.0 0.00 0.00 0.00 44 1000.0
20260903004703 94 74 2.0 5.0 0.00 0.00 0.00 42 1000.0
20260903004204 95 55 2.0 5.0 0.00 0.00 0.00 42 1000.0
20260903003704 95 92 0.0 3.0 0.00 0.00 0.00 41 1000.0
20260903003204 95 26 3.0 5.0 0.00 0.00 0.00 39 1000.0
20260903002704 96 44 3.0 5.0 0.00 0.00 0.00 39 1000.0
20260903002204 96 125 4.0 6.0 0.00 0.00 0.00 38 1000.0
20260903001704 96 88 5.0 6.0 0.00 0.00 0.00 38 1000.0
20260903001203 96 49 3.0 6.0 0.00 0.00 0.00 38 1000.0
20260903000704 96 37 3.0 6.0 0.00 0.00 0.00 38 1000.0
20260903000204 96 130 3.0 5.0 0.00 0.00 0.00 38 1000.0
20260902234704 97 114 3.0 5.0 0.00 0.00 0.00 37 1000.0
20260902234203 98 123 3.0 7.0 0.00 0.00 0.00 36 1000.0
20260902233703 98 122 5.0 6.0 0.00 0.00 0.00 35 1000.0
20260902233204 98 136 3.0 6.0 0.00 0.00 0.00 35 1000.0
20260902232704 98 135 3.0 6.0 0.00 0.00 0.00 35 1000.0
20260902232204 98 150 3.0 5.0 0.00 0.00 0.00 35 1000.0
20260902230703 98 132 5.0 6.0 0.00 0.00 0.00 35 1000.0
20260902230206 98 138 5.0 8.0 0.00 0.00 0.00 34 1000.0
20260902225705 98 139 7.0 8.0 0.00 0.00 0.00 34 1000.0
20260902225203 98 155 6.0 10.0 0.00 0.00 0.00 34 1000.0
20260902224704 98 127 6.0 9.0 0.00 0.00 0.00 34 1000.0
20260902224204 99 154 6.0 10.0 0.00 0.00 0.00 34 1000.0
20260902223704 99 141 6.0 10.0 0.00 0.00 0.00 32 1000.0
20260902223203 99 124 9.0 10.0 0.00 0.00 0.00 32 1000.0
20260902222704 100 136 7.0 8.0 0.00 0.00 0.00 31 1000.0
20260902221703 101 177 2.0 7.0 0.00 0.00 0.00 30 1000.0
20260902221204 101 120 1.0 6.0 0.00 0.00 0.00 29 1000.0
20260902220704 101 223 3.0 5.0 0.00 0.00 0.00 29 1000.0
20260902220204 101 207 5.0 9.0 0.00 0.00 0.00 29 1000.0
20260902215703 101 211 5.0 8.0 0.00 0.00 0.00 30 1000.0
20260902214704 101 197 5.0 8.0 0.00 0.00 0.00 30 1000.0
20260902214203 100 219 5.0 9.0 0.00 0.00 0.00 30 1000.0
20260902213703 100 173 6.0 12.0 0.00 0.00 0.00 31 1000.0
20260902213203 100 193 5.0 9.0 0.00 0.00 0.00 32 1000.0
20260902212704 100 177 2.0 8.0 0.00 0.00 0.00 32 1000.0
20260902212204 99 198 3.0 6.0 0.00 0.00 0.00 32 1000.0
20260902211704 99 202 4.0 6.0 0.00 0.00 0.00 33 1000.0
20260902211204 100 194 4.0 7.0 0.00 0.00 0.00 33 1000.0
20260902210704 100 206 6.0 8.0 0.00 0.00 0.00 31 1000.0
20260902210203 101 216 3.0 9.0 0.00 0.00 0.00 31 1000.0
20260902205703 100 126 6.0 7.0 0.00 0.00 0.00 32 1000.0
20260902205205 100 133 3.0 10.0 0.00 0.00 0.00 32 1000.0
20260902204703 100 153 4.0 9.0 0.00 0.00 0.00 31 1000.0
20260902204203 101 196 7.0 10.0 0.00 0.00 0.00 30 1000.0
20260902203204 101 283 3.0 7.0 0.00 0.00 0.00 32 1000.0
20260902202204 100 143 5.0 7.0 0.00 0.00 0.00 33 1000.0
20260902201703 99 171 3.0 8.0 0.00 0.00 0.00 32 1000.0
20260902200703 100 220 5.0 9.0 0.00 0.00 0.00 33 1000.0
20260902200203 99 201 4.0 8.0 0.00 0.00 0.00 34 1000.0
20260902195204 100 206 2.0 5.0 0.00 0.00 0.00 34 1000.0
20260902194704 100 217 1.0 6.0 0.00 0.00 0.00 34 1000.0
20260902194204 99 188 4.0 10.0 0.00 0.00 0.00 34 1000.0
20260902193704 99 276 2.0 7.0 0.00 0.00 0.00 35 1000.0
20260902193203 99 232 1.0 8.0 0.00 0.00 0.00 35 1000.0
20260902192704 99 261 5.0 8.0 0.00 0.00 0.00 35 1000.0
20260902192203 100 262 2.0 7.0 0.00 0.00 0.00 35 1000.0
20260902191703 100 229 2.0 8.0 0.00 0.00 0.00 34 1000.0
20260902191203 100 235 4.0 10.0 0.00 0.00 0.00 34 1000.0
20260902190204 99 241 6.0 10.0 0.00 0.00 0.00 35 1000.0
20260902185704 99 247 4.0 8.0 0.00 0.00 0.00 34 1000.0
20260902185205 99 201 5.0 10.0 0.00 0.00 0.00 34 1000.0
20260902184703 99 159 6.0 9.0 0.00 0.00 0.00 36 1000.0
20260902184204 98 190 7.0 10.0 0.00 0.00 0.00 35 1000.0
20260902183703 98 204 5.0 9.0 0.00 0.00 0.00 36 1000.0
20260902183204 99 219 3.0 7.0 0.00 0.00 0.00 36 1000.0
20260902182204 99 274 6.0 9.0 0.00 0.00 0.00 35 1000.0
20260902181203 98 251 6.0 12.0 0.00 0.00 0.00 37 1000.0
20260902180203 99 221 4.0 10.0 0.00 0.00 0.00 37 1000.0
20260902175204 98 205 5.0 12.0 0.00 0.00 0.00 38 1000.0
20260902174704 97 332 5.0 13.0 0.00 0.00 0.00 39 1000.0
20260902174203 97 210 6.0 12.0 0.00 0.00 0.00 40 1000.0
20260902173204 97 258 6.0 9.0 0.00 0.00 0.00 39 1000.0
20260902172203 97 214 5.0 14.0 0.00 0.00 0.00 40 1000.0
20260902171704 96 192 7.0 14.0 0.00 0.00 0.00 39 1000.0
20260902171204 97 223 6.0 13.0 0.00 0.00 0.00 40 1000.0
20260902170703 97 208 5.0 10.0 0.00 0.00 0.00 41 1000.0
20260902170204 96 269 7.0 12.0 0.00 0.00 0.00 40 1000.0
20260902165703 96 263 6.0 12.0 0.00 0.00 0.00 41 1000.0
20260902165207 96 217 6.0 10.0 0.00 0.00 0.00 42 1000.0
20260902163704 95 237 6.0 13.0 0.00 0.00 0.00 43 1000.0
20260902163204 95 212 7.0 14.0 0.00 0.00 0.00 43 1000.0
20260902161703 94 219 7.0 14.0 0.00 0.00 0.00 44 1000.0
20260902161203 94 141 5.0 12.0 0.00 0.00 0.00 44 1000.0
20260902160704 94 237 6.0 12.0 0.00 0.00 0.00 44 1000.0
20260902160204 94 215 7.0 10.0 0.00 0.00 0.00 45 1000.0
20260902155704 94 244 6.0 10.0 0.00 0.00 0.00 45 1000.0
20260902155204 93 199 8.0 13.0 0.00 0.00 0.00 45 1000.0
20260902154204 93 250 6.0 9.0 0.00 0.00 0.00 46 1000.0
20260902153204 92 217 7.0 16.0 0.00 0.00 0.00 47 1000.0
20260902151703 91 235 4.0 12.0 0.00 0.00 0.00 50 1000.0
20260902151204 90 196 6.0 10.0 0.00 0.00 0.00 51 1000.0
20260902150704 90 199 6.0 13.0 0.00 0.00 0.00 51 1000.0
20260902150203 90 203 6.0 13.0 0.00 0.00 0.00 52 1000.0
20260902145703 89 195 9.0 10.0 0.00 0.00 0.00 52 1000.0
20260902144704 89 205 7.0 14.0 0.00 0.00 0.00 54 1000.0
20260902144204 88 238 7.0 12.0 0.00 0.00 0.00 53 1000.0
20260902143203 88 199 9.0 13.0 0.00 0.00 0.00 54 1000.0
20260902142705 88 205 7.0 14.0 0.00 0.00 0.00 54 1000.0
20260902142204 88 199 6.0 12.0 0.00 0.00 0.00 55 1000.0
20260902141704 88 202 7.0 12.0 0.00 0.00 0.00 55 1000.0
20260902141204 87 196 6.0 12.0 0.00 0.00 0.00 56 1000.0
20260902140703 87 209 7.0 12.0 0.00 0.00 0.00 56 1000.0
20260902140203 87 187 9.0 15.0 0.00 0.00 0.00 56 1000.0
20260902135704 87 200 7.0 13.0 0.00 0.00 0.00 57 1000.0
20260902135204 86 173 6.0 12.0 0.00 0.00 0.00 58 1000.0
20260902134203 85 182 8.0 12.0 0.00 0.00 0.00 58 1000.0
20260902133704 85 199 5.0 12.0 0.00 0.00 0.00 59 1000.0
20260902133204 85 183 7.0 9.0 0.00 0.00 0.00 60 1000.0
20260902132704 85 202 6.0 9.0 0.00 0.00 0.00 60 1000.0
20260902132204 84 205 5.0 7.0 0.00 0.00 0.00 61 1000.0
20260902131703 84 201 4.0 9.0 0.00 0.00 0.00 62 1000.0
20260902131203 83 217 5.0 7.0 0.00 0.00 0.00 63 1000.0
20260902130704 82 198 5.0 7.0 0.00 0.00 0.00 64 1000.0
20260902130204 82 181 4.0 6.0 0.00 0.00 0.00 65 1000.0
20260902125703 81 180 5.0 7.0 0.00 0.00 0.00 66 1000.0
20260902124703 80 166 5.0 7.0 0.00 0.00 0.00 68 1000.0
20260902123704 80 143 5.0 7.0 0.00 0.00 0.00 70 1000.0
20260902122703 79 138 5.0 6.0 0.00 0.00 0.00 71 1000.0
20260902121704 79 138 6.0 7.0 0.00 0.00 0.00 74 1000.0
20260902121203 78 128 3.0 6.0 0.00 0.00 0.00 77 1000.0
20260902120704 78 124 5.0 6.0 0.00 0.00 0.00 77 1000.0
20260902115703 79 133 5.0 6.0 0.00 0.00 0.00 72 1000.0
20260902114704 80 139 3.0 6.0 0.00 0.00 0.00 70 1000.0
20260902114204 79 138 3.0 6.0 0.00 0.00 0.00 71 1000.0
20260902113703 80 113 3.0 6.0 0.00 0.00 0.00 71 1000.0
20260902113203 80 120 4.0 6.0 0.00 0.00 0.00 71 1000.0
20260902112704 80 118 4.0 6.0 0.00 0.00 0.00 71 1000.0
20260902111203 80 109 3.0 5.0 0.00 0.00 0.00 71 1000.0
20260902110204 80 136 3.0 6.0 0.00 0.00 0.00 72 1000.0
20260902105704 79 134 5.0 6.0 0.00 0.00 0.00 73 1000.0
20260902105204 79 120 5.0 6.0 0.00 0.00 0.00 74 1000.0
20260902104703 79 129 4.0 6.0 0.00 0.00 0.00 74 1000.0
20260902104203 80 130 4.0 5.0 0.00 0.00 0.00 72 1000.0
20260902103704 80 127 4.0 5.0 0.00 0.00 0.00 70 1000.0
20260902102704 81 126 4.0 6.0 0.00 0.00 0.00 68 1000.0
20260902102203 81 138 3.0 6.0 0.00 0.00 0.00 67 1000.0
20260902101204 83 166 6.0 9.0 0.00 0.00 0.00 61 1000.0
20260902100703 83 163 5.0 8.0 0.00 0.00 0.00 60 1000.0
20260902100203 83 177 6.0 8.0 0.00 0.00 0.00 59 1000.0
20260902095703 84 176 5.0 8.0 0.00 0.00 0.00 58 1000.0
20260902094703 84 183 7.0 10.0 0.00 0.00 0.00 58 1000.0
20260902094203 84 181 7.0 12.0 0.00 0.00 0.00 58 1000.0
20260902093703 84 179 6.0 9.0 0.00 0.00 0.00 58 1000.0
20260902093204 84 172 7.0 12.0 0.00 0.00 0.00 58 1000.0
20260902092704 84 175 7.0 10.0 0.00 0.00 0.00 58 1000.0
20260902092204 84 182 7.0 10.0 0.00 0.00 0.00 58 1000.0
20260902091703 84 180 7.0 10.0 0.00 0.00 0.00 58 1000.0
20260902091203 84 189 7.0 10.0 0.00 0.00 0.00 58 1000.0
20260902090204 83 185 9.0 12.0 0.00 0.00 0.00 59 1000.0
20260902085703 82 176 6.0 10.0 0.00 0.00 0.00 62 1000.0
20260902084704 80 168 3.0 6.0 0.00 0.00 0.00 69 1000.0
20260902084203 80 145 3.0 3.0 0.00 0.00 0.00 71 1000.0
20260902083703 80 140 2.0 3.0 0.00 0.00 0.00 73 1000.0
20260902083204 80 118 2.0 5.0 0.00 0.00 0.00 73 1000.0
20260902082704 80 119 5.0 6.0 0.00 0.00 0.00 72 1000.0
20260902082204 80 121 4.0 6.0 0.00 0.00 0.00 69 1000.0
20260902081704 81 142 5.0 7.0 0.00 0.00 0.00 65 1000.0
20260902081203 82 175 4.0 7.0 0.00 0.00 0.00 64 1000.0
20260902080703 81 176 4.0 7.0 0.00 0.00 0.00 66 1000.0